Chillicothe, MO

10:39 PM CDT on September 18, 2019 (GMT -0500)
Chillicothe

Weather History for KCDJ - July, 2019

Change the Weather History Date:

Wednesday, July 10, 2019

  Actual Average (KIRK) Record (KIRK)
Temperature  
Mean Temperature 81 °F -  
Max Temperature 89 °F 87 °F 103 °F (1936)
Min Temperature 73 °F 67 °F 51 °F (1956)
Cooling Degree Days 16    
Growing Degree Days 31 (Base 50)    
Moisture  
Dew Point 69 °F    
Average Humidity 69    
Maximum Humidity 96    
Minimum Humidity 40    
Precipitation  
Precipitation 0.00 in - - ()
Sea Level Pressure  
Sea Level Pressure 29.97 in    
Wind  
Wind Speed 2 mph (WNW)    
Max Wind Speed 10 mph    
Max Gust Speed 17 mph    
Averages and records for this station are not official NWS values.
T = Trace of Precipitation, MM = Missing Value Source: NWS Daily Summary

Daily Weather History Graph

Daily Weather History Graph

Search for Another Location

Airport or City:

Astronomy

Jul. 10, 2019 Rise Set
Actual Time 5:54 AM CDT 8:44 PM CDT
Civil Twilight 5:22 AM CDT 9:16 PM CDT
Nautical Twilight 4:42 AM CDT 9:56 PM CDT
Astronomical Twilight 3:56 AM CDT 10:42 PM CDT
Moon 2:51 PM CDT (7/10) 1:34 AM CDT (7/10)
Length of Visible Light 15h 53m
Length of Day
14h 49m
Waxing Gibbous, 64% of the Moon is Illuminated
Jul 10
Waxing Gibbous
Jul 16
Full
Jul 24
Last Quarter
Jul 31
New
Aug 7
First Quarter

Hourly Weather History & Observations

Time (CDT) Temp. Heat Index Dew Point Humidity Pressure Visibility Wind Dir Wind Speed Gust Speed Precip Events Conditions
12:52 AM 78.1 °F - 75.0 °F 90% 29.91 in - Calm Calm - N/A   Unknown
1:52 AM 78.1 °F - 75.0 °F 90% 29.92 in - Calm Calm - N/A   Unknown
2:52 AM 77.0 °F - 75.0 °F 94% 29.92 in - Calm Calm - N/A   Unknown
3:52 AM 77.0 °F - 75.0 °F 94% 29.93 in - Calm Calm - N/A   Unknown
4:52 AM 75.9 °F - 73.9 °F 94% 29.93 in - Calm Calm - N/A   Unknown
5:52 AM 75.0 °F - 73.9 °F 96% 29.96 in - Calm Calm - N/A   Unknown
6:52 AM 78.1 °F - 75.0 °F 90% 29.96 in - Calm Calm - N/A   Unknown
7:52 AM 82.9 °F 90.8 °F 75.9 °F 79% 29.98 in - Calm Calm - N/A   Unknown
8:52 AM 87.1 °F 97.3 °F 75.9 °F 69% 30.01 in - Variable 4.6 mph - N/A   Unknown
9:52 AM 84.9 °F 92.1 °F 73.9 °F 69% 30.00 in - WSW 3.5 mph - N/A   Unknown
10:52 AM 82.0 °F 87.9 °F 73.9 °F 76% 29.95 in - South 10.4 mph - N/A   Unknown
11:52 AM 82.9 °F 89.4 °F 73.9 °F 74% 29.98 in - NW 10.4 mph 17.3 mph N/A   Unknown
12:52 PM 84.0 °F 88.4 °F 70.0 °F 63% 29.98 in - North - - N/A   Unknown
1:52 PM 84.0 °F 85.4 °F 64.0 °F 51% 29.97 in - Variable 4.6 mph - N/A   Unknown
2:52 PM 86.0 °F 87.3 °F 64.0 °F 48% 29.97 in - WNW 6.9 mph - N/A   Unknown
3:52 PM 87.1 °F 88.9 °F 64.9 °F 48% 29.96 in - Variable 3.5 mph - N/A   Unknown
4:52 PM 88.0 °F 88.7 °F 63.0 °F 43% 29.95 in - WNW 4.6 mph - N/A   Unknown
5:52 PM 89.1 °F 89.3 °F 62.1 °F 40% 29.96 in - WNW 5.8 mph - N/A   Unknown
6:52 PM 87.1 °F 86.7 °F 60.1 °F 40% 29.96 in - North - - N/A   Unknown
7:52 PM 84.0 °F 84.4 °F 61.0 °F 46% 29.96 in - North - - N/A   Unknown
8:52 PM 80.1 °F 81.1 °F 61.0 °F 52% 29.99 in - Variable 3.5 mph - N/A   Unknown
10:52 PM 73.0 °F - 62.1 °F 68% 30.02 in - NW 3.5 mph - N/A   Unknown
11:52 PM 73.0 °F - 62.1 °F 68% 30.03 in - NW 3.5 mph - N/A   Unknown